EUTELSAT 48D

Last updated on Mon Sep 11 2023 00:02:38 GMT+0000 (Coordinated Universal Time)

1 33460U 08065B 23253.28536758 -.00000232 00000+0 00000+0 0 9990 2 33460 2.6923 86.3323 0002598 26.1086 318.9628 0.98764696 53800
UTC large
Height (km)
Speed (km/s)
/
Latitude / Longitude
Inclination (degrees)
Orbital Period (minutes)
Azimuth
Elevation
Range (km)
Doppler Factor

Next 0 passes for location: London (51.5072 / 0.1276)

Sorry there are no passes over London.